SLE2187 LROP-EPKK

Flight info

Callsign SLE2187
Flight time 1h 11m
Altitude 36000
Route SOKRU DCT LARMU DCT KENIN DCT LENOV
Aircraft A321/M-SDE3FGHIRWY/LB1

Departure

Time 2026-04-30 06:20
Airport Bucharest Henri Coandă International Airport (LROP)

Arrival

Time 2026-04-30 07:31
Airport Kraków John Paul II International Airport (EPKK)
Time Latitude Longitude Altitude Speed Heading
2026-04-30 05:51 44.57015 26.08079 321 ft 0 kts 354°
2026-04-30 06:08 44.56993 26.08082 317 ft 4 kts 359°
2026-04-30 06:08 44.56967 26.08079 319 ft 4 kts 12°
2026-04-30 06:08 44.56943 26.08067 319 ft 4 kts 43°
2026-04-30 06:09 44.56933 26.08047 319 ft 0 kts 84°
2026-04-30 06:13 44.56933 26.08051 320 ft 3 kts 84°
2026-04-30 06:14 44.56938 26.08116 320 ft 11 kts 84°
2026-04-30 06:14 44.56945 26.08217 320 ft 6 kts 84°
2026-04-30 06:14 44.56952 26.08306 320 ft 9 kts 84°
2026-04-30 06:14 44.56975 26.08373 320 ft 5 kts 41°
2026-04-30 06:15 44.57053 26.08382 320 ft 6 kts 355°
2026-04-30 06:15 44.57131 26.08367 320 ft 10 kts 351°
2026-04-30 06:15 44.57184 26.08358 320 ft 10 kts 359°
2026-04-30 06:15 44.57236 26.08444 320 ft 6 kts 64°
2026-04-30 06:16 44.57319 26.08488 319 ft 21 kts 356°
2026-04-30 06:16 44.57452 26.08473 321 ft 14 kts 354°
2026-04-30 06:16 44.57518 26.08464 321 ft 0 kts 354°
2026-04-30 06:17 44.57524 26.08463 321 ft 4 kts 354°
2026-04-30 06:18 44.57599 26.08455 322 ft 9 kts 358°
2026-04-30 06:18 44.57659 26.08500 323 ft 10 kts 63°
2026-04-30 06:18 44.57666 26.08526 323 ft 0 kts 72°
2026-04-30 06:18 44.57692 26.08773 321 ft 64 kts 83°
2026-04-30 06:19 44.57746 26.09728 321 ft 130 kts 83°
2026-04-30 06:19 44.57867 26.11247 320 ft 180 kts 84°
2026-04-30 06:19 44.57963 26.12504 434 ft 201 kts 84°
2026-04-30 06:19 44.58136 26.14647 660 ft 239 kts 84°
2026-04-30 06:20 44.58328 26.17126 1112 ft 272 kts 84°
2026-04-30 06:20 44.58639 26.19800 1528 ft 271 kts 69°
2026-04-30 06:20 44.59734 26.21822 1957 ft 263 kts 33°
2026-04-30 06:20 44.61447 26.22614 2387 ft 263 kts
2026-04-30 06:21 44.63263 26.22332 3053 ft 266 kts 341°
2026-04-30 06:21 44.64875 26.21071 3918 ft 267 kts 323°
2026-04-30 06:21 44.66382 26.19521 4767 ft 270 kts 322°
2026-04-30 06:21 44.67893 26.17930 5573 ft 273 kts 322°
2026-04-30 06:22 44.69418 26.16310 6374 ft 276 kts 322°
2026-04-30 06:22 44.70961 26.14670 7173 ft 280 kts 322°
2026-04-30 06:22 44.72519 26.13014 7942 ft 283 kts 322°
2026-04-30 06:22 44.74097 26.11335 8686 ft 286 kts 322°
2026-04-30 06:23 44.75693 26.09636 9422 ft 289 kts 322°
2026-04-30 06:23 44.77308 26.07919 10128 ft 293 kts 322°
2026-04-30 06:23 44.78986 26.06137 10411 ft 314 kts 322°
2026-04-30 06:23 44.80791 26.04218 10583 ft 335 kts 322°
2026-04-30 06:24 44.82680 26.02205 11089 ft 344 kts 322°
2026-04-30 06:24 44.84599 26.00162 11737 ft 348 kts 322°
2026-04-30 06:24 44.86540 25.98094 12391 ft 351 kts 322°
2026-04-30 06:24 44.88499 25.96003 13031 ft 355 kts 322°
2026-04-30 06:25 44.90477 25.93893 13667 ft 358 kts 322°
2026-04-30 06:25 44.92473 25.91762 14287 ft 361 kts 322°
2026-04-30 06:25 44.94485 25.89608 14906 ft 365 kts 322°
2026-04-30 06:25 44.96515 25.87431 15509 ft 368 kts 322°
2026-04-30 06:26 44.98563 25.85235 16113 ft 371 kts 322°
2026-04-30 06:26 45.00632 25.83015 16701 ft 375 kts 322°
2026-04-30 06:26 45.02715 25.80778 17272 ft 378 kts 322°
2026-04-30 06:26 45.04820 25.78520 17834 ft 381 kts 322°
2026-04-30 06:27 45.06940 25.76244 18386 ft 384 kts 322°
2026-04-30 06:27 45.09077 25.73947 18928 ft 387 kts 322°
2026-04-30 06:27 45.11230 25.71630 19445 ft 391 kts 322°
2026-04-30 06:27 45.13402 25.69288 19980 ft 394 kts 322°
2026-04-30 06:28 45.15586 25.66930 20491 ft 397 kts 322°
2026-04-30 06:28 45.17787 25.64549 20999 ft 400 kts 322°
2026-04-30 06:28 45.20008 25.62144 21503 ft 403 kts 322°
2026-04-30 06:28 45.22241 25.59722 21994 ft 406 kts 322°
2026-04-30 06:29 45.24496 25.57278 22464 ft 409 kts 322°
2026-04-30 06:29 45.26762 25.54821 22920 ft 412 kts 322°
2026-04-30 06:29 45.29047 25.52341 23354 ft 415 kts 322°
2026-04-30 06:29 45.31344 25.49845 23774 ft 417 kts 322°
2026-04-30 06:30 45.33656 25.47328 24188 ft 420 kts 322°
2026-04-30 06:30 45.35983 25.44792 24580 ft 423 kts 322°
2026-04-30 06:30 45.38322 25.42238 24976 ft 425 kts 322°
2026-04-30 06:30 45.40672 25.39667 25364 ft 428 kts 322°
2026-04-30 06:31 45.43037 25.37078 25749 ft 430 kts 322°
2026-04-30 06:31 45.45414 25.34477 26115 ft 433 kts 322°
2026-04-30 06:31 45.47809 25.31858 26472 ft 435 kts 322°
2026-04-30 06:31 45.50215 25.29224 26821 ft 437 kts 322°
2026-04-30 06:32 45.52636 25.26572 27168 ft 440 kts 322°
2026-04-30 06:32 45.55065 25.23904 27503 ft 442 kts 322°
2026-04-30 06:32 45.57505 25.21216 27832 ft 444 kts 322°
2026-04-30 06:32 45.59958 25.18511 28150 ft 447 kts 322°
2026-04-30 06:33 45.62423 25.15789 28472 ft 449 kts 322°
2026-04-30 06:33 45.64891 25.13061 28775 ft 451 kts 322°
2026-04-30 06:33 45.67375 25.10316 29071 ft 453 kts 322°
2026-04-30 06:33 45.69878 25.07549 29357 ft 455 kts 322°
2026-04-30 06:34 45.72374 25.04785 29639 ft 457 kts 322°
2026-04-30 06:34 45.74891 25.01992 29922 ft 459 kts 322°
2026-04-30 06:34 45.77418 24.99182 30207 ft 461 kts 322°
2026-04-30 06:34 45.79958 24.96357 30486 ft 463 kts 322°
2026-04-30 06:35 45.82509 24.93519 30760 ft 465 kts 322°
2026-04-30 06:35 45.85066 24.90673 31106 ft 465 kts 322°
2026-04-30 06:35 45.87615 24.87833 31490 ft 464 kts 322°
2026-04-30 06:35 45.90155 24.84995 31861 ft 463 kts 322°
2026-04-30 06:36 45.92692 24.82156 32227 ft 462 kts 322°
2026-04-30 06:36 45.95227 24.79316 32579 ft 461 kts 321°
2026-04-30 06:36 45.97752 24.76483 32922 ft 461 kts 322°
2026-04-30 06:36 46.00278 24.73649 33265 ft 460 kts 321°
2026-04-30 06:37 46.02798 24.70820 33590 ft 459 kts 321°
2026-04-30 06:37 46.05314 24.67991 33917 ft 459 kts 321°
2026-04-30 06:37 46.07824 24.65161 34236 ft 458 kts 321°
2026-04-30 06:37 46.10326 24.62330 34545 ft 457 kts 321°
2026-04-30 06:38 46.12599 24.59752 34815 ft 457 kts 321°
2026-04-30 06:38 46.14918 24.57127 35106 ft 456 kts 321°
2026-04-30 06:38 46.17416 24.54306 35399 ft 456 kts 321°
2026-04-30 06:38 46.19908 24.51489 35692 ft 455 kts 321°
2026-04-30 06:39 46.22397 24.48669 35942 ft 455 kts 321°
2026-04-30 06:39 46.27358 24.43032 36009 ft 452 kts 321°
2026-04-30 06:40 46.32298 24.37404 36011 ft 452 kts 321°
2026-04-30 06:40 46.37230 24.31772 36009 ft 452 kts 321°
2026-04-30 06:41 46.42162 24.26131 36009 ft 452 kts 321°
2026-04-30 06:41 46.47090 24.20477 36010 ft 452 kts 321°
2026-04-30 06:42 46.52016 24.14813 36013 ft 452 kts 321°
2026-04-30 06:42 46.56945 24.09132 36017 ft 452 kts 321°
2026-04-30 06:43 46.61869 24.03439 36020 ft 452 kts 321°
2026-04-30 06:43 46.66790 23.97736 36020 ft 452 kts 321°
2026-04-30 06:44 46.71709 23.92019 36022 ft 452 kts 321°
2026-04-30 06:44 46.76628 23.86298 36023 ft 452 kts 321°
2026-04-30 06:45 46.81542 23.80566 36023 ft 452 kts 321°
2026-04-30 06:45 46.86456 23.74827 36022 ft 452 kts 321°
2026-04-30 06:46 46.91366 23.69076 36024 ft 452 kts 321°
2026-04-30 06:46 46.96267 23.63310 36023 ft 452 kts 321°
2026-04-30 06:47 47.01170 23.57532 36023 ft 452 kts 321°
2026-04-30 06:47 47.06065 23.51743 36023 ft 452 kts 321°
2026-04-30 06:48 47.10963 23.45953 36022 ft 452 kts 321°
2026-04-30 06:48 47.15856 23.40153 36023 ft 452 kts 321°
2026-04-30 06:49 47.20742 23.34337 36022 ft 452 kts 321°
2026-04-30 06:49 47.25628 23.28511 36022 ft 452 kts 320°
2026-04-30 06:50 47.30507 23.22670 36022 ft 452 kts 320°
2026-04-30 06:50 47.35387 23.16823 36022 ft 452 kts 320°
2026-04-30 06:51 47.40263 23.10976 36023 ft 452 kts 320°
2026-04-30 06:51 47.45139 23.05114 36022 ft 452 kts 320°
2026-04-30 06:52 47.50004 22.99229 36022 ft 452 kts 320°
2026-04-30 06:52 47.54868 22.93341 36022 ft 452 kts 320°
2026-04-30 06:53 47.59733 22.87443 36022 ft 452 kts 320°
2026-04-30 06:53 47.64590 22.81534 36021 ft 452 kts 320°
2026-04-30 06:54 47.69445 22.75614 36021 ft 452 kts 320°
2026-04-30 06:54 47.74293 22.69679 36021 ft 452 kts 320°
2026-04-30 06:55 47.79140 22.63736 36021 ft 452 kts 320°
2026-04-30 06:55 47.83987 22.57788 36021 ft 452 kts 320°
2026-04-30 06:56 47.88831 22.51826 36021 ft 452 kts 320°
2026-04-30 06:56 47.93673 22.45858 36021 ft 452 kts 320°
2026-04-30 06:57 47.98511 22.39878 36021 ft 452 kts 320°
2026-04-30 06:57 48.03336 22.33874 36021 ft 451 kts 320°
2026-04-30 06:58 48.08160 22.27860 36021 ft 451 kts 320°
2026-04-30 06:58 48.12177 22.22858 36021 ft 452 kts 320°
2026-04-30 06:59 48.17003 22.16843 36021 ft 451 kts 320°
2026-04-30 06:59 48.21821 22.10812 36020 ft 451 kts 320°
2026-04-30 07:00 48.26633 22.04755 36020 ft 451 kts 320°
2026-04-30 07:00 48.31443 21.98697 36020 ft 451 kts 320°
2026-04-30 07:01 48.36293 21.92699 36018 ft 451 kts 324°
2026-04-30 07:01 48.41625 21.87707 36019 ft 451 kts 328°
2026-04-30 07:02 48.46984 21.82777 36019 ft 452 kts 328°
2026-04-30 07:02 48.52342 21.77818 36018 ft 452 kts 328°
2026-04-30 07:03 48.57685 21.72843 36018 ft 452 kts 328°
2026-04-30 07:03 48.63038 21.67870 36018 ft 452 kts 328°
2026-04-30 07:04 48.68392 21.62892 36017 ft 452 kts 328°
2026-04-30 07:04 48.73748 21.57890 36005 ft 453 kts 328°
2026-04-30 07:05 48.81798 21.50351 36003 ft 454 kts 328°
2026-04-30 07:05 48.87169 21.45299 36000 ft 454 kts 328°
2026-04-30 07:06 48.89859 21.42757 35340 ft 459 kts 328°
2026-04-30 07:06 48.92579 21.40180 34587 ft 462 kts 328°
2026-04-30 07:06 48.95313 21.37591 33889 ft 464 kts 328°
2026-04-30 07:06 48.98050 21.35000 33327 ft 462 kts 328°
2026-04-30 07:07 49.00771 21.32428 32826 ft 459 kts 328°
2026-04-30 07:07 49.03476 21.29870 32339 ft 456 kts 328°
2026-04-30 07:07 49.06156 21.27331 31868 ft 452 kts 328°
2026-04-30 07:07 49.08811 21.24808 31348 ft 449 kts 328°
2026-04-30 07:08 49.11456 21.22283 30724 ft 448 kts 327°
2026-04-30 07:08 49.14099 21.19758 30098 ft 448 kts 327°
2026-04-30 07:08 49.16735 21.17238 29469 ft 447 kts 327°
2026-04-30 07:08 49.19365 21.14721 28848 ft 445 kts 327°
2026-04-30 07:09 49.21987 21.12212 28222 ft 444 kts 327°
2026-04-30 07:09 49.24605 21.09710 27597 ft 443 kts 327°
2026-04-30 07:09 49.27208 21.07218 26968 ft 441 kts 327°
2026-04-30 07:10 49.34494 20.99472 25138 ft 434 kts 312°
2026-04-30 07:10 49.36446 20.95968 24513 ft 431 kts 309°
2026-04-30 07:10 49.38372 20.92450 23885 ft 429 kts 309°
2026-04-30 07:11 49.40282 20.88953 23252 ft 427 kts 309°
2026-04-30 07:11 49.42182 20.85471 22633 ft 424 kts 309°
2026-04-30 07:11 49.44070 20.82006 22006 ft 422 kts 309°
2026-04-30 07:11 49.45945 20.78561 21380 ft 419 kts 309°
2026-04-30 07:12 49.47816 20.75127 20754 ft 417 kts 309°
2026-04-30 07:12 49.49674 20.71714 20110 ft 415 kts 309°
2026-04-30 07:12 49.51495 20.68365 19481 ft 398 kts 309°
2026-04-30 07:12 49.53225 20.65176 18860 ft 379 kts 309°
2026-04-30 07:13 49.54877 20.62122 18237 ft 363 kts 309°
2026-04-30 07:13 49.56457 20.59200 17611 ft 348 kts 309°
2026-04-30 07:13 49.57978 20.56387 16985 ft 335 kts 309°
2026-04-30 07:13 49.59447 20.53672 16370 ft 325 kts 309°
2026-04-30 07:14 49.60876 20.51032 15733 ft 316 kts 309°
2026-04-30 07:14 49.62265 20.48463 15107 ft 309 kts 309°
2026-04-30 07:14 49.63623 20.45944 14477 ft 302 kts 309°
2026-04-30 07:14 49.64952 20.43476 13853 ft 296 kts 309°
2026-04-30 07:15 49.66259 20.41047 13228 ft 291 kts 309°
2026-04-30 07:15 49.67542 20.38658 12598 ft 287 kts 309°
2026-04-30 07:15 49.68806 20.36299 11963 ft 283 kts 309°
2026-04-30 07:15 49.70051 20.33972 11340 ft 279 kts 309°
2026-04-30 07:16 49.71284 20.31670 10714 ft 276 kts 309°
2026-04-30 07:16 49.72503 20.29392 10091 ft 274 kts 309°
2026-04-30 07:16 49.73710 20.27135 9456 ft 271 kts 309°
2026-04-30 07:16 49.74903 20.24896 8823 ft 269 kts 309°
2026-04-30 07:17 49.76084 20.22676 8218 ft 266 kts 309°
2026-04-30 07:17 49.77235 20.20520 8030 ft 259 kts 309°
2026-04-30 07:17 49.79850 20.16672 8009 ft 262 kts 323°
2026-04-30 07:18 49.81306 20.14977 8008 ft 262 kts 322°
2026-04-30 07:18 49.82737 20.13298 8010 ft 262 kts 322°
2026-04-30 07:18 49.84188 20.11589 8009 ft 262 kts 322°
2026-04-30 07:18 49.85640 20.09875 7801 ft 262 kts 322°
2026-04-30 07:19 49.87086 20.08171 7598 ft 261 kts 322°
2026-04-30 07:19 49.88527 20.06474 7398 ft 260 kts 322°
2026-04-30 07:19 49.89965 20.04779 7196 ft 259 kts 322°
2026-04-30 07:19 49.91418 20.03125 6993 ft 259 kts 328°
2026-04-30 07:20 49.93035 20.01930 6787 ft 258 kts 341°
2026-04-30 07:20 49.94782 20.01305 6594 ft 258 kts 349°
2026-04-30 07:20 49.96543 20.00803 6393 ft 257 kts 349°
2026-04-30 07:20 49.98303 20.00293 6189 ft 256 kts 349°
2026-04-30 07:21 50.00064 20.00327 5981 ft 255 kts 18°
2026-04-30 07:21 50.01549 20.01753 5781 ft 254 kts 50°
2026-04-30 07:21 50.02328 20.04166 5612 ft 252 kts 78°
2026-04-30 07:21 50.02682 20.06852 5510 ft 253 kts 79°
2026-04-30 07:22 50.03379 20.12077 5544 ft 230 kts 78°
2026-04-30 07:22 50.03698 20.14435 5550 ft 213 kts 78°
2026-04-30 07:22 50.03991 20.16599 5536 ft 201 kts 78°
2026-04-30 07:23 50.04278 20.18717 5526 ft 199 kts 78°
2026-04-30 07:23 50.04600 20.20770 5520 ft 192 kts 69°
2026-04-30 07:23 50.05336 20.22459 5518 ft 188 kts 43°
2026-04-30 07:23 50.06417 20.23476 5518 ft 180 kts 19°
2026-04-30 07:24 50.07641 20.23731 5524 ft 178 kts 355°
2026-04-30 07:24 50.08859 20.23385 5333 ft 176 kts 347°
2026-04-30 07:24 50.10058 20.22994 4999 ft 176 kts 347°
2026-04-30 07:24 50.11241 20.22563 4616 ft 174 kts 339°
2026-04-30 07:25 50.12247 20.21579 4528 ft 171 kts 315°
2026-04-30 07:25 50.12920 20.20065 4530 ft 171 kts 292°
2026-04-30 07:25 50.13161 20.18264 4525 ft 170 kts 269°
2026-04-30 07:25 50.12977 20.16445 4524 ft 170 kts 257°
2026-04-30 07:26 50.12733 20.14644 4523 ft 170 kts 257°
2026-04-30 07:26 50.12489 20.12845 4521 ft 170 kts 257°
2026-04-30 07:26 50.12245 20.11042 4525 ft 170 kts 257°
2026-04-30 07:26 50.11999 20.09238 4443 ft 171 kts 257°
2026-04-30 07:27 50.11754 20.07434 4254 ft 170 kts 257°
2026-04-30 07:27 50.11509 20.05636 4050 ft 169 kts 257°
2026-04-30 07:27 50.11265 20.03846 3830 ft 169 kts 257°
2026-04-30 07:27 50.11021 20.02059 3610 ft 168 kts 257°
2026-04-30 07:28 50.10777 20.00281 3388 ft 168 kts 257°
2026-04-30 07:28 50.10535 19.98507 3164 ft 167 kts 258°
2026-04-30 07:28 50.10292 19.96741 2944 ft 167 kts 257°
2026-04-30 07:28 50.10051 19.94978 2722 ft 166 kts 257°
2026-04-30 07:29 50.09809 19.93221 2502 ft 166 kts 257°
2026-04-30 07:29 50.09568 19.91470 2283 ft 165 kts 257°
2026-04-30 07:29 50.09328 19.89726 2064 ft 164 kts 257°
2026-04-30 07:29 50.09088 19.87990 1846 ft 164 kts 257°
2026-04-30 07:30 50.08610 19.84529 1415 ft 163 kts 257°
2026-04-30 07:30 50.08375 19.82826 1190 ft 155 kts 257°
2026-04-30 07:30 50.08141 19.81244 980 ft 146 kts 255°
2026-04-30 07:31 50.07928 19.79735 831 ft 131 kts 259°
2026-04-30 07:31 50.07792 19.78622 801 ft 82 kts 257°
2026-04-30 07:31 50.07731 19.78200 799 ft 19 kts 258°
2026-04-30 07:31 50.07669 19.78095 799 ft 14 kts 188°
2026-04-30 07:32 50.07576 19.78082 800 ft 8 kts 184°
2026-04-30 07:32 50.07517 19.78076 800 ft 9 kts 178°
2026-04-30 07:32 50.07476 19.78139 800 ft 8 kts 85°
2026-04-30 07:32 50.07478 19.78165 800 ft 0 kts 83°
2026-04-30 07:34 50.07479 19.78183 800 ft 9 kts 85°
2026-04-30 07:34 50.07504 19.78381 800 ft 25 kts 77°
2026-04-30 07:34 50.07543 19.78653 800 ft 26 kts 77°
2026-04-30 07:35 50.07582 19.78938 800 ft 27 kts 77°
2026-04-30 07:35 50.07623 19.79229 800 ft 28 kts 78°
2026-04-30 07:35 50.07661 19.79511 800 ft 20 kts 78°
2026-04-30 07:35 50.07653 19.79675 800 ft 15 kts 144°
2026-04-30 07:36 50.07555 19.79733 800 ft 15 kts 166°
2026-04-30 07:36 50.07503 19.79728 800 ft 6 kts 228°
2026-04-30 07:36 50.07489 19.79683 800 ft 2 kts 255°
2026-04-30 07:36 50.07487 19.79670 800 ft 0 kts 254°